Location: UBC Liquid-Mirror Observatory
(49.2876°N, 122.5728°W)
Time: 21:05:24
(UTC-07:00)

KITSAT 1 - Visible Passes

Search period start: 26 April 2015 00:00
Search period end: 06 May 2015 00:00
Orbit: 1308 x 1322 km, 66.1° (Epoch: 26 April)

Date Brightness Start Highest point End Pass type
(mag) Time Alt. Az. Time Alt. Az. Time Alt. Az.
26 Apr 10.5 00:35:32 18° SW 00:41:48 64° NW 00:49:53 10° NE visible
26 Apr 11.9 02:32:02 10° WNW 02:38:54 29° NNW 02:45:44 10° NE visible
26 Apr 12.2 04:30:41 10° NW 04:37:09 25° N 04:43:39 10° ENE visible
26 Apr 11.7 21:06:41 10° ESE 21:08:42 11° E 21:11:18 10° ENE visible
26 Apr 10.3 22:57:32 23° S 23:02:32 55° ESE 23:10:23 10° NE visible
27 Apr 10.9 00:50:19 10° WSW 00:58:09 50° NW 01:06:01 10° NE visible
27 Apr 12.1 02:49:05 10° WNW 02:55:39 26° NNW 03:02:12 10° NE visible
27 Apr 12.2 04:47:13 10° NW 04:53:55 27° NNE 05:00:41 10° ENE visible
27 Apr 11.4 21:19:24 10° SE 21:24:16 18° ESE 21:29:31 10° ENE visible
27 Apr 10.1 23:10:30 10° SSW 23:18:30 74° ESE 23:26:36 10° NE visible
28 Apr 11.3 01:07:04 10° WSW 01:14:37 40° NNW 01:22:10 10° NE visible
28 Apr 12.2 03:06:04 10° WNW 03:12:27 24° N 03:18:50 10° NE visible
28 Apr 12.1 05:03:35 10° NW 05:10:37 31° NNE 05:17:44 10° E visible
28 Apr 11.0 21:33:38 10° SSE 21:39:56 27° ESE 21:46:29 10° NE visible
28 Apr 10.2 23:26:29 10° SW 23:34:35 84° NW 23:42:46 10° NE visible
29 Apr 11.7 01:23:57 10° W 01:31:11 34° NNW 01:38:24 10° NE visible
29 Apr 12.3 03:22:56 10° NW 03:29:17 24° N 03:35:38 10° NE visible
29 Apr 10.6 21:48:31 10° S 21:55:41 38° ESE 22:03:02 10° NE visible
29 Apr 10.6 23:42:45 10° SW 23:50:48 65° NW 23:58:53 10° NE visible
30 Apr 11.9 01:40:58 10° WNW 01:47:52 29° NNW 01:54:43 10° NE visible
30 Apr 12.3 03:39:39 10° NW 03:46:05 25° N 03:52:35 10° ENE visible
30 Apr 10.3 22:03:50 10° S 22:11:33 53° ESE 22:19:23 10° NE visible
30 Apr 11.0 23:59:16 10° WSW 00:07:08 51° NW 00:15:01 10° NE visible
01 May 12.2 01:58:00 10° WNW 02:04:36 26° NNW 02:11:10 10° NE visible
01 May 12.3 03:56:11 10° NW 04:02:52 27° NNE 04:09:37 10° ENE visible
01 May 10.2 22:19:30 10° SSW 22:27:30 73° ESE 22:35:36 10° NE visible
02 May 11.4 00:16:00 10° WSW 00:23:34 41° NW 00:31:10 10° NE visible
02 May 12.3 02:15:01 10° WNW 02:21:24 24° N 02:27:47 10° NE visible
02 May 12.1 04:12:34 10° NW 04:19:35 31° NNE 04:26:40 10° E visible
02 May 10.3 22:35:29 10° SW 22:43:35 86° NW 22:51:46 10° NE visible
03 May 11.8 00:32:53 10° W 00:40:09 34° NNW 00:47:23 10° NE visible
03 May 12.4 02:31:53 10° NW 02:38:14 24° N 02:44:35 10° NE visible
03 May 11.9 04:28:50 10° NW 04:36:13 36° NNE 04:43:38 10° E visible
03 May 10.7 20:57:34 10° S 21:04:43 37° ESE 21:12:00 10° NE visible
03 May 10.6 22:51:44 10° SW 22:59:47 67° NW 23:07:53 10° NE visible
04 May 12.0 00:49:54 10° W 00:56:49 29° NNW 01:03:42 10° NE visible
04 May 12.4 02:48:36 10° NW 02:55:02 25° N 03:01:31 10° ENE visible
04 May 11.6 04:45:01 10° NW 04:52:44 45° NE 05:00:28 10° ESE visible
04 May 10.4 21:12:52 10° S 21:20:34 52° ESE 21:28:22 10° NE visible
04 May 11.0 23:08:14 10° WSW 23:16:06 52° NW 23:24:00 10° NE visible
05 May 12.2 01:06:56 10° WNW 01:13:33 26° NNW 01:20:08 10° NE visible
05 May 12.3 03:05:09 10° NW 03:11:49 27° NNE 03:18:33 10° ENE visible
05 May 11.1 05:01:10 10° NW 05:09:08 56° NE 05:17:08 10° ESE visible
05 May 10.2 21:28:31 10° SSW 21:36:31 71° ESE 21:44:36 10° NE visible
05 May 11.5 23:24:56 10° WSW 23:32:33 42° NW 23:40:10 10° NE visible
